AG4OX Weather Reports


Display with metric or nautical units.
time (UTC)temp
F
wind
direction
speed
MPH
gust
MPH
rain 1hr
in
rain 24hr
in
rain mn
in
humidity
%
barometer
mb
20260902022006 77 142 0.0 1.0 0.00 0.00 0.00 77 1014.2
20260902021005 77 103 0.0 1.0 0.00 0.00 0.00 79 1014.0
20260902015005 78 103 0.0 1.0 0.00 0.00 0.00 80 1014.0
20260902012005 78 103 0.0 0.0 0.00 0.00 0.00 83 1013.8
20260902011006 79 103 0.0 1.0 0.00 0.00 0.00 83 1013.6
20260902010005 79 86 0.0 1.0 0.00 0.00 0.00 83 1013.6
20260902005006 80 86 1.0 3.0 0.00 0.00 0.00 83 1013.6
20260902004005 80 105 2.0 5.0 0.00 0.00 0.00 83 1013.5
20260902003007 81 68 1.0 3.0 0.00 0.00 0.00 83 1013.6
20260902002005 81 21 0.0 3.0 0.00 0.00 0.00 83 1013.7
20260902001005 81 23 0.0 2.0 0.00 0.00 0.00 83 1013.6
20260901235006 82 23 0.0 1.0 0.00 0.00 0.00 83 1013.9
20260901233005 82 23 0.0 1.0 0.00 0.00 0.00 82 1013.6
20260901232005 82 23 0.0 2.0 0.00 0.00 0.00 82 1013.6
20260901231006 82 51 0.0 3.0 0.00 0.00 0.00 81 1013.5
20260901230006 83 40 1.0 2.0 0.00 0.00 0.00 81 1013.4
20260901225005 83 32 1.0 3.0 0.00 0.00 0.00 81 1013.4
20260901224007 83 354 1.0 3.0 0.00 0.00 0.00 81 1013.4
20260901223006 83 17 2.0 3.0 0.00 0.00 0.00 81 1013.5
20260901222005 83 41 1.0 3.0 0.00 0.00 0.00 81 1013.3
20260901221007 83 52 2.0 6.0 0.00 0.00 0.00 81 1013.2
20260901220005 84 1 1.0 3.0 0.00 0.00 0.00 81 1013.1
20260901215005 84 71 3.0 6.0 0.00 0.00 0.00 80 1012.7
20260901214007 84 22 2.0 9.0 0.00 0.00 0.00 80 1012.7
20260901213005 85 46 2.0 7.0 0.00 0.00 0.00 79 1012.6
20260901212006 85 56 4.0 9.0 0.00 0.00 0.00 77 1012.7
20260901211005 85 51 4.0 12.0 0.00 0.00 0.00 76 1012.6
20260901210005 87 47 2.0 8.0 0.00 0.00 0.00 73 1012.9
20260901205006 87 43 3.0 9.0 0.00 0.00 0.00 72 1012.8
20260901204007 87 44 4.0 9.0 0.00 0.00 0.00 70 1013.1
20260901202007 88 27 4.0 9.0 0.00 0.01 0.00 71 1013.1
20260901200006 89 47 6.0 12.0 0.00 0.01 0.00 69 1013.0
20260901195005 89 71 5.0 10.0 0.00 0.01 0.00 69 1013.2
20260901194006 89 90 3.0 10.0 0.00 0.01 0.00 69 1013.3
20260901193006 88 6 6.0 12.0 0.00 0.01 0.00 71 1013.4
20260901192005 89 27 3.0 10.0 0.00 0.01 0.00 67 1013.2
20260901191007 89 47 2.0 10.0 0.00 0.01 0.00 70 1013.3
20260901190005 88 33 3.0 10.0 0.00 0.01 0.00 70 1013.4
20260901185006 89 80 5.0 10.0 0.00 0.01 0.00 70 1013.5
20260901183006 88 72 5.0 12.0 0.00 0.01 0.00 70 1013.7
20260901181005 89 36 5.0 10.0 0.00 0.01 0.00 68 1013.9
20260901180004 89 75 3.0 12.0 0.00 0.01 0.00 69 1013.9
20260901175006 89 77 5.0 12.0 0.00 0.01 0.00 69 1014.2
20260901174008 89 31 4.0 10.0 0.00 0.01 0.00 70 1014.5
20260901173005 89 20 3.0 12.0 0.00 0.01 0.00 70 1014.6
20260901172006 90 16 4.0 10.0 0.00 0.01 0.00 68 1014.7
20260901171005 90 38 3.0 9.0 0.00 0.01 0.00 68 1014.6
20260901170005 90 62 3.0 9.0 0.00 0.01 0.00 67 1014.7
20260901165006 90 20 4.0 10.0 0.00 0.01 0.00 67 1014.7
20260901164005 91 31 3.0 6.0 0.00 0.01 0.00 66 1014.7
20260901163005 90 34 3.0 10.0 0.00 0.01 0.00 68 1014.6
20260901162005 90 21 2.0 10.0 0.00 0.01 0.00 69 1014.8
20260901161006 89 32 3.0 7.0 0.00 0.02 0.00 68 1015.0
20260901155006 88 44 2.0 7.0 0.00 0.06 0.00 72 1015.2
20260901154005 88 12 2.0 5.0 0.00 0.10 0.00 72 1015.2
20260901153006 88 19 3.0 7.0 0.00 0.20 0.00 72 1015.2
20260901152007 86 80 1.0 3.0 0.00 0.20 0.00 76 1015.3
20260901151005 86 348 3.0 5.0 0.00 0.20 0.00 77 1015.3
20260901150006 85 71 1.0 5.0 0.00 0.20 0.00 76 1015.2
20260901145005 85 43 2.0 5.0 0.00 0.20 0.00 77 1015.2
20260901144006 85 346 2.0 5.0 0.00 0.20 0.00 76 1015.1
20260901143005 85 352 2.0 3.0 0.00 0.20 0.00 78 1015.2
20260901142005 85 15 1.0 3.0 0.00 0.20 0.00 79 1015.1
20260901141006 86 37 1.0 5.0 0.00 0.20 0.00 77 1014.9
20260901140006 87 109 1.0 3.0 0.00 0.20 0.00 77 1014.9
20260901135005 86 71 1.0 3.0 0.00 0.20 0.00 78 1014.9
20260901134005 86 28 2.0 3.0 0.00 0.20 0.00 77 1014.8
20260901133007 86 347 1.0 3.0 0.00 0.20 0.00 79 1014.7
20260901132006 85 333 1.0 3.0 0.00 0.20 0.00 81 1014.7
20260901131006 85 346 2.0 3.0 0.00 0.20 0.00 81 1014.7
20260901130006 83 55 1.0 3.0 0.00 0.20 0.00 82 1014.7
20260901125006 81 14 1.0 3.0 0.00 0.20 0.00 79 1014.7
20260901124006 80 5 1.0 2.0 0.00 0.20 0.00 72 1014.6
20260901122005 78 317 1.0 2.0 0.00 0.20 0.00 65 1014.5
20260901121007 78 18 0.0 2.0 0.00 0.20 0.00 65 1014.4
20260901120004 77 340 1.0 2.0 0.00 0.20 0.00 65 1014.2
20260901113005 75 318 1.0 2.0 0.00 0.20 0.00 66 1013.8
20260901112006 75 318 0.0 1.0 0.00 0.20 0.00 66 1013.8
20260901111005 75 336 0.0 0.0 0.00 0.20 0.00 66 1013.7
20260901110005 75 336 0.0 1.0 0.00 0.20 0.00 66 1013.5
20260901104005 75 200 1.0 2.0 0.00 0.20 0.00 66 1013.5
20260901102007 75 200 0.0 1.0 0.00 0.20 0.00 67 1013.2
20260901101005 75 200 0.0 1.0 0.00 0.20 0.00 66 1013.2
20260901100005 75 200 0.0 1.0 0.00 0.20 0.00 67 1013.1
20260901095007 75 200 0.0 0.0 0.00 0.20 0.00 67 1013.3
20260901092005 76 200 0.0 1.0 0.00 0.20 0.00 67 1013.3
20260901090004 76 200 0.0 1.0 0.00 0.20 0.00 67 1013.3
20260901085007 76 200 0.0 0.0 0.00 0.20 0.00 67 1013.1
20260901084005 76 200 0.0 1.0 0.00 0.20 0.00 67 1013.4
20260901082006 76 200 0.0 1.0 0.00 0.20 0.00 68 1013.1
20260901081005 76 200 0.0 1.0 0.00 0.20 0.00 68 1013.2
20260901080004 76 200 0.0 1.0 0.00 0.20 0.00 67 1013.3
20260901075005 76 200 0.0 1.0 0.00 0.20 0.00 67 1013.3
20260901074007 77 200 1.0 2.0 0.00 0.20 0.00 67 1013.2
20260901071005 77 284 0.0 2.0 0.00 0.20 0.00 67 1013.6
20260901070004 77 288 0.0 1.0 0.00 0.20 0.00 67 1013.8
20260901064005 77 234 1.0 3.0 0.00 0.20 0.00 67 1014.0
20260901063006 77 290 0.0 2.0 0.00 0.20 0.00 67 1014.1
20260901062005 77 165 0.0 1.0 0.00 0.20 0.00 68 1014.3
20260901061006 77 165 1.0 3.0 0.00 0.20 0.00 68 1014.3
20260901060004 77 300 0.0 2.0 0.00 0.20 0.00 67 1014.1
20260901055005 77 299 1.0 2.0 0.00 0.20 0.00 67 1014.4
20260901054006 77 272 1.0 2.0 0.00 0.20 0.00 67 1014.6
20260901053006 77 277 0.0 0.0 0.00 0.20 0.00 67 1014.7
20260901052005 77 277 0.0 1.0 0.00 0.20 0.00 67 1014.9
20260901051005 77 277 0.0 1.0 0.00 0.20 0.00 67 1014.9
20260901050004 77 277 0.0 1.0 0.00 0.20 0.00 68 1015.0
20260901045005 77 277 0.0 1.0 0.00 0.20 0.00 68 1015.0
20260901044005 77 163 0.0 1.0 0.00 0.20 0.00 68 1015.0
20260901043005 77 147 0.0 0.0 0.00 0.20 0.00 69 1015.0
20260901042005 77 147 0.0 1.0 0.00 0.20 0.00 69 1015.0
20260901041011 77 148 0.0 1.0 0.00 0.20 0.00 69 1014.9
20260901040005 77 148 0.0 0.0 0.00 0.20 0.00 69 1014.8
20260901035005 78 148 0.0 1.0 0.00 0.20 0.20 69 1014.9
20260901033007 78 148 0.0 1.0 0.00 0.20 0.20 70 1014.9
20260901032005 78 148 0.0 1.0 0.00 0.20 0.20 70 1014.9
20260901030005 78 148 0.0 0.0 0.00 0.20 0.20 70 1015.0
20260901025006 78 148 0.0 0.0 0.00 0.20 0.20 71 1015.3
20260901024006 78 148 0.0 0.0 0.00 0.20 0.20 70 1015.3
20260901023005 78 148 0.0 0.0 0.00 0.20 0.20 72 1015.2